Wind_Speed
8 7 4 2 2 3 2 4 2 6 5 3 2 3 5 2 4 3 3 15 20 34 33 29 25 22 18 17 18 18 19 19 20 19 19 22 19 17 17 14 15 13 14 12 13 14 16 17 17
10 6 2 2 3 2 3 4 7 6 10 13 6 4 4 4 6 3 5 16 23 33 32 29 27 21 18 18 18 18 19 20 21 20 20 22 20 16 16 18 15 14 13 13 15 17 18 18 15
11 7 4 1 2 4 4 4 4 5 14 4 5 5 5 3 4 3 6 16 24 34 31 29 26 22 20 18 17 18 20 19 22 20 18 19 20 18 18 18 16 15 15 15 16 17 17 14 12
7 4 3 2 6 4 5 5 3 8 8 6 6 7 9 6 3 4 7 17 23 33 31 28 26 22 20 18 17 19 22 25 22 21 21 21 19 16 19 20 17 18 17 15 14 16 14 13 11
4 2 1 4 4 4 5 9 3 5 5 11 12 5 8 13 8 6 8 17 22 31 32 28 25 23 21 19 17 18 22 23 22 21 21 20 15 16 19 19 18 18 16 14 13 13 13 13 11
3 4 3 6 10 8 4 11 5 4 7 10 5 4 7 13 11 8 9 15 21 29 32 30 26 24 22 22 18 19 23 26 23 23 21 21 20 18 16 18 19 17 15 14 12 12 12 10 10
5 3 4 4 4 6 2 4 1 6 4 5 10 3 6 7 9 11 12 15 20 28 32 31 28 25 24 23 20 20 22 26 25 24 22 23 22 20 18 18 17 16 14 12 11 10 11 11 11
3 3 2 3 3 6 9 11 6 6 3 10 6 2 6 24 19 14 14 18 22 27 32 33 31 28 26 24 22 20 21 26 24 23 22 25 23 21 20 21 20 16 13 13 10 10 11 12 12
5 1 3 4 4 2 13 9 7 12 7 8 7 13 12 20 18 12 18 22 25 29 32 35 34 32 30 26 24 22 22 24 26 25 25 25 22 26 25 24 20 18 15 12 10 9 11 13 13
4 2 3 3 4 4 12 5 16 8 14 12 25 11 12 23 19 12 21 25 29 32 34 38 37 36 33 30 27 24 23 23 27 27 26 24 25 27 26 26 23 20 17 13 11 11 11 12 12
3 3 3 2 10 12 7 10 6 7 5 5 16 29 29 25 22 20 22 29 30 30 33 38 39 37 36 34 30 30 27 25 25 28 28 27 26 28 28 27 26 24 21 18 14 13 13 13 12
0 0 2 9 13 13 8 11 7 14 14 17 24 30 33 33 31 26 25 27 32 32 34 36 39 38 39 36 34 33 33 30 27 28 29 29 26 30 29 29 27 25 22 18 16 14 13 13 12
3 5 13 16 13 14 14 7 9 20 18 15 19 22 22 21 21 20 21 26 32 34 35 36 38 41 41 39 39 36 36 34 30 29 29 29 28 30 30 30 28 25 22 19 17 15 14 13 12
5 6 14 6 12 14 8 14 7 4 18 25 34 34 33 29 26 25 21 22 25 33 35 36 36 42 43 42 42 40 38 36 35 33 32 29 28 30 32 31 29 26 23 20 17 15 14 13 13
4 5 7 1 7 4 18 3 3 11 31 30 32 41 39 34 28 27 25 24 22 26 34 36 39 39 46 46 44 43 42 40 39 37 35 33 30 31 32 32 30 28 25 22 19 17 15 14 15
4 4 6 7 11 5 8 7 8 30 31 35 36 35 37 34 31 29 27 25 23 23 30 35 35 40 41 46 48 41 41 43 41 40 38 35 34 31 34 34 32 30 26 23 21 19 17 17 16
7 3 4 9 4 3 2 16 17 40 31 27 29 34 29 26 23 22 25 26 25 23 24 31 34 36 42 41 48 48 44 45 44 43 42 37 35 32 33 33 34 32 28 27 23 24 20 21 19
4 4 4 9 5 5 15 18 23 36 23 23 24 17 13 14 17 18 19 22 24 23 22 25 31 35 39 43 47 51 45 43 44 45 44 40 38 37 36 34 36 34 31 31 28 25 25 23 22
3 4 10 12 11 5 12 19 25 27 21 12 7 11 17 20 24 27 21 16 20 22 22 20 27 34 36 42 44 51 50 46 47 44 47 44 43 42 41 38 39 38 37 36 32 26 30 28 26
2 7 8 10 4 7 14 23 21 11 6 1 3 11 18 23 29 34 32 22 15 16 20 23 23 29 35 39 46 47 56 44 44 46 48 46 45 47 49 42 38 40 38 39 34 34 34 31 30
3 4 5 6 15 2 6 9 6 4 1 4 4 11 15 21 31 39 40 30 22 15 15 22 26 29 32 39 44 48 45 44 43 42 44 47 48 50 48 42 40 41 40 40 38 40 35 34 34
6 3 7 12 9 4 6 6 6 3 5 2 9 15 23 23 28 33 39 35 27 22 17 17 26 31 32 35 43 50 50 49 50 46 44 49 40 49 46 43 44 41 38 38 41 42 35 37 35
8 9 14 9 5 4 1 4 9 3 1 2 7 19 25 26 30 35 35 34 29 26 24 21 20 30 35 34 41 46 50 48 45 47 47 46 43 45 45 47 43 41 39 38 39 39 37 40 34
8 7 8 1 0 2 4 2 8 4 2 2 8 17 21 29 32 37 34 38 41 33 29 24 22 25 32 35 37 43 46 47 46 46 47 49 46 43 38 37 41 37 38 36 41 37 34 45 35
10 6 5 6 4 5 2 4 11 3 4 4 9 22 22 31 31 32 31 39 41 37 32 27 23 23 28 34 36 40 44 48 46 48 44 44 46 41 45 46 45 43 39 36 36 33 36 41 34
3 2 4 4 4 10 15 7 6 5 5 9 24 28 39 34 32 34 42 38 38 34 30 28 24 23 24 33 31 36 38 48 46 46 46 40 44 45 49 47 47 44 40 38 35 38 36 35 32
4 2 4 5 2 4 4 6 8 4 7 22 26 36 36 32 35 39 39 37 36 32 30 29 25 22 23 29 30 34 36 44 43 45 41 39 44 48 55 49 48 45 42 38 40 36 34 33 28
4 3 4 3 5 6 6 7 9 5 14 20 22 31 29 36 35 35 36 36 30 27 27 26 23 21 22 25 29 32 36 35 40 42 41 41 45 50 50 50 48 48 42 41 41 37 32 26 23
4 3 2 2 2 3 6 8 3 6 18 21 23 27 33 34 35 36 37 35 28 27 24 21 20 20 21 24 28 33 33 37 39 43 41 41 44 45 47 44 46 46 44 39 35 29 27 25 23
1 4 4 3 4 4 5 8 4 13 20 33 35 29 35 35 36 37 36 32 26 23 19 19 19 19 17 21 22 31 32 34 28 36 37 39 38 39 40 40 37 34 33 29 26 28 28 23 28
Wind_Direction
319 317 339 159 65 60 216 244 259 280 305 300 248 189 216 208 170 208 265 178 180 179 181 184 194 187 195 192 193 187 185 167 161 163 163 178 181 180 176 164 140 147 143 140 137 131 127 123 120
317 339 1 109 111 200 254 237 238 251 289 299 303 273 243 243 221 257 206 184 183 185 185 187 195 191 196 191 187 183 168 164 164 164 164 170 177 175 165 145 157 148 150 140 134 132 127 122 121
318 352 15 91 169 204 210 220 261 292 344 290 314 273 279 234 229 227 201 190 183 189 189 191 194 196 193 189 181 179 176 166 166 171 163 168 162 163 154 155 163 160 140 138 137 135 130 122 111
301 10 64 261 230 248 212 249 209 316 328 7 344 304 292 281 272 240 208 191 188 191 192 194 197 196 194 185 181 175 167 173 166 164 167 161 163 157 154 166 166 149 147 145 143 140 136 134 133
233 285 92 278 260 260 239 249 197 284 272 294 302 260 278 299 268 267 223 196 196 193 194 196 198 199 193 184 183 182 176 169 173 168 173 159 158 169 177 169 158 151 152 151 148 152 152 145 139
162 152 179 227 238 251 277 279 276 241 282 300 290 281 276 284 284 244 221 203 200 197 195 197 199 202 198 187 183 182 178 168 177 176 171 164 176 182 180 165 154 152 161 154 155 155 162 162 140
157 138 224 265 257 269 254 305 325 315 310 339 321 295 299 2 277 239 219 209 202 201 199 200 198 202 202 190 189 184 186 173 181 178 175 173 182 189 162 149 156 164 168 159 156 157 161 159 154
131 95 277 246 221 269 14 341 346 47 310 325 344 333 326 329 329 248 218 214 207 205 204 204 202 201 201 197 195 190 189 182 177 184 179 184 192 157 157 168 167 172 169 177 167 162 160 158 152
142 144 234 237 200 287 5 359 334 322 290 317 310 312 311 335 344 257 224 216 210 211 210 207 206 204 203 205 200 194 194 189 181 189 189 191 190 164 176 176 167 176 181 189 176 166 161 159 157
67 167 245 26 12 345 327 337 320 332 328 305 302 295 294 319 328 284 237 225 218 213 210 210 210 207 205 207 205 199 197 196 188 190 196 197 183 174 182 170 174 182 189 187 185 164 157 159 161
9 200 325 234 335 329 297 304 303 289 279 289 304 300 303 305 304 295 260 242 231 222 216 210 212 212 208 207 205 203 205 203 199 195 195 200 189 184 187 176 180 187 191 187 186 173 167 167 170
99 188 321 310 324 326 304 310 289 265 273 291 292 289 288 286 290 290 281 268 244 230 224 217 217 212 214 211 207 209 207 207 205 203 197 201 196 189 191 185 188 191 194 194 189 182 177 175 174
47 331 318 316 326 316 311 299 281 285 301 319 314 314 311 300 291 279 275 271 260 244 231 226 220 219 214 215 210 215 214 214 211 208 205 205 202 197 195 194 194 195 196 197 191 188 186 183 179
311 300 302 327 329 330 350 304 283 265 335 324 316 313 307 299 296 285 281 273 266 255 241 231 225 221 220 214 216 214 217 219 216 213 212 205 205 203 201 199 199 200 199 197 196 192 190 187 182
327 359 337 269 343 306 343 359 238 269 317 313 306 312 308 299 292 280 280 279 272 262 254 237 232 226 224 224 218 219 219 218 222 218 215 211 208 206 206 203 202 203 201 198 193 192 194 193 185
41 53 357 301 335 325 19 281 271 293 292 296 306 304 304 300 296 286 275 272 267 268 256 248 233 233 227 229 226 220 219 222 223 222 219 218 213 212 207 205 205 205 204 203 197 200 197 200 191
25 295 300 313 333 271 47 294 285 294 296 298 299 306 311 313 313 299 282 268 260 260 261 253 243 233 230 232 227 228 224 224 223 225 224 220 221 214 213 208 208 208 206 207 206 204 209 203 192
305 327 260 275 281 339 294 283 291 293 302 297 304 332 3 5 2 348 311 272 254 251 253 254 248 241 232 228 231 227 223 221 222 223 227 223 221 220 213 210 210 209 208 209 211 211 203 202 198
235 240 260 271 279 297 290 297 287 302 304 300 344 22 0 352 355 1 354 325 275 248 240 253 244 241 237 228 229 218 212 221 224 226 227 223 226 223 214 208 206 213 210 211 215 210 209 197 201
244 276 282 284 253 328 306 290 287 305 290 182 68 352 346 345 340 347 351 345 328 291 252 236 241 244 238 233 230 226 224 225 229 226 228 226 230 228 218 213 210 210 209 212 209 220 201 207 201
274 241 292 291 321 316 328 284 333 325 17 175 346 357 350 338 340 339 340 339 328 312 284 249 235 231 241 233 231 229 225 225 226 227 227 227 230 231 232 214 209 209 212 215 216 215 211 218 200
309 185 290 300 333 297 67 287 296 284 294 81 321 339 344 337 338 329 332 331 323 315 298 275 247 233 230 234 229 225 220 220 226 231 231 232 225 234 220 217 212 210 212 216 223 214 221 222 209
257 319 293 302 280 306 223 253 273 322 156 304 315 332 331 331 329 325 324 325 320 311 304 290 264 241 230 230 228 224 223 231 227 229 229 224 227 227 233 217 209 212 210 216 226 216 227 228 224
298 315 317 103 35 273 233 182 277 274 227 307 288 311 317 322 322 324 324 323 318 310 301 292 272 249 235 226 230 229 226 221 223 228 230 228 228 224 210 215 212 214 214 218 226 220 230 224 222
12 5 346 356 4 235 150 286 252 248 217 242 314 332 329 322 319 315 316 315 312 307 300 293 276 256 234 225 229 228 231 230 230 233 237 231 228 227 210 212 203 214 208 218 225 224 228 220 222
345 58 125 288 297 293 282 233 256 193 227 301 331 341 330 321 319 314 313 313 311 306 300 292 281 257 237 221 225 230 228 233 234 237 241 241 231 226 220 207 209 207 209 213 217 215 218 219 218
287 3 193 261 248 278 268 282 289 212 317 340 335 326 322 319 321 314 313 311 311 306 297 290 280 259 239 216 222 225 228 233 233 235 240 243 233 224 210 211 205 209 205 211 213 211 217 209 205
153 310 10 0 309 295 266 281 272 311 337 322 331 325 325 325 319 316 313 313 314 304 295 291 273 254 236 219 217 219 227 230 233 233 236 233 225 215 211 204 206 203 205 207 199 198 195 188 187
344 350 345 268 237 271 306 294 237 0 329 334 330 330 333 328 326 322 321 324 316 302 298 290 279 253 229 220 211 213 222 227 229 228 228 227 222 215 211 203 194 195 197 190 184 176 169 168 180
264 225 153 129 302 269 268 270 295 336 339 336 327 337 334 332 330 329 330 330 324 314 297 281 273 247 220 219 213 212 221 217 228 218 221 220 218 210 206 194 190 178 172 169 164 165 168 176 167
Height
1511 1511 1509 1510 1518 1516 1521 1515 1510 1505 1501 1497 1497 1496 1494 1491 1492 1499 1489 1490 1493 1494 1498 1501 1505 1506 1509 1511 1514 1516 1519 1522 1525 1527 1530 1533 1535 1536 1538 1539 1542 1543 1545 1545 1545 1547 1548 1550 1552
1510 1510 1509 1508 1518 1523 1517 1510 1507 1503 1500 1497 1495 1495 1493 1489 1488 1487 1488 1490 1493 1495 1497 1499 1502 1505 1508 1510 1512 1514 1518 1521 1524 1527 1528 1531 1534 1536 1538 1540 1542 1544 1545 1546 1546 1547 1549 1551 1553
1509 1508 1509 1511 1516 1518 1515 1504 1502 1499 1497 1496 1496 1495 1493 1487 1486 1486 1486 1488 1491 1495 1497 1500 1502 1504 1505 1509 1511 1514 1516 1520 1523 1525 1528 1530 1533 1536 1538 1541 1542 1543 1545 1547 1547 1549 1551 1552 1554
1507 1508 1513 1516 1512 1507 1502 1496 1497 1496 1496 1496 1496 1496 1493 1488 1487 1485 1485 1486 1489 1494 1497 1500 1502 1503 1506 1508 1510 1513 1516 1519 1523 1525 1528 1531 1533 1535 1538 1540 1542 1543 1545 1547 1548 1549 1551 1553 1555
1508 1510 1515 1518 1510 1502 1496 1493 1495 1496 1496 1494 1495 1492 1490 1490 1487 1486 1485 1486 1487 1491 1494 1498 1501 1503 1505 1507 1509 1511 1513 1519 1522 1526 1528 1531 1534 1536 1537 1539 1540 1543 1546 1547 1548 1550 1551 1553 1555
1508 1509 1516 1513 1502 1499 1495 1494 1495 1494 1493 1492 1493 1490 1486 1487 1487 1487 1486 1486 1488 1489 1493 1496 1499 1502 1504 1506 1508 1511 1513 1517 1521 1525 1528 1532 1534 1537 1537 1539 1542 1545 1547 1547 1548 1550 1551 1553 1555
1507 1509 1508 1506 1504 1500 1493 1494 1494 1495 1493 1493 1493 1490 1487 1486 1487 1486 1486 1487 1487 1489 1492 1495 1497 1501 1503 1505 1508 1510 1512 1518 1520 1523 1526 1530 1533 1534 1537 1541 1544 1546 1548 1548 1548 1550 1552 1553 1555
1504 1505 1508 1507 1505 1501 1498 1495 1495 1495 1494 1493 1492 1491 1488 1487 1487 1486 1487 1488 1488 1488 1490 1493 1496 1498 1503 1504 1507 1510 1511 1515 1521 1524 1525 1527 1529 1533 1538 1541 1544 1547 1548 1548 1549 1549 1551 1553 1556
1503 1507 1508 1506 1502 1499 1499 1500 1496 1496 1495 1493 1492 1492 1490 1486 1485 1485 1486 1487 1486 1486 1488 1490 1492 1496 1499 1503 1505 1508 1512 1513 1518 1523 1525 1526 1526 1531 1535 1539 1542 1544 1546 1548 1549 1550 1551 1553 1555
1504 1509 1508 1506 1505 1504 1504 1503 1501 1498 1494 1492 1490 1489 1488 1486 1485 1485 1484 1483 1484 1482 1484 1486 1489 1491 1496 1500 1503 1507 1508 1512 1515 1519 1525 1525 1526 1529 1533 1535 1540 1543 1543 1547 1548 1549 1551 1553 1555
1508 1510 1510 1506 1507 1506 1503 1500 1498 1496 1492 1491 1489 1485 1484 1484 1483 1483 1482 1481 1481 1484 1485 1485 1487 1489 1493 1496 1500 1504 1506 1508 1512 1517 1519 1524 1525 1529 1530 1535 1536 1539 1541 1544 1547 1548 1550 1552 1554
1509 1508 1508 1506 1505 1503 1501 1498 1495 1493 1490 1489 1487 1484 1481 1480 1478 1478 1478 1477 1478 1480 1481 1484 1485 1487 1489 1493 1496 1500 1502 1505 1508 1513 1515 1521 1523 1527 1529 1531 1535 1537 1541 1543 1545 1547 1549 1551 1553
1509 1508 1506 1505 1503 1502 1499 1498 1496 1491 1488 1485 1483 1480 1477 1475 1473 1472 1471 1471 1471 1472 1475 1478 1482 1483 1485 1489 1491 1495 1498 1502 1506 1508 1513 1515 1519 1523 1528 1531 1533 1535 1538 1542 1543 1546 1548 1550 1552
1510 1509 1506 1503 1502 1499 1499 1494 1493 1486 1484 1482 1478 1474 1472 1470 1469 1466 1465 1464 1464 1466 1468 1471 1474 1479 1481 1483 1486 1489 1494 1498 1501 1504 1507 1510 1516 1519 1523 1527 1531 1533 1536 1539 1542 1544 1547 1549 1551
1510 1509 1504 1502 1501 1501 1498 1490 1490 1483 1480 1476 1473 1468 1464 1463 1462 1460 1460 1459 1459 1458 1461 1463 1467 1472 1475 1478 1481 1484 1488 1492 1495 1498 1502 1505 1509 1514 1519 1523 1527 1530 1533 1536 1539 1542 1545 1547 1549
1512 1515 1517 1501 1501 1500 1500 1493 1485 1480 1475 1469 1466 1463 1458 1455 1454 1453 1452 1452 1453 1453 1452 1454 1457 1462 1467 1471 1475 1478 1482 1486 1490 1493 1496 1501 1504 1509 1513 1517 1523 1526 1530 1534 1536 1539 1542 1545 1547
1520 1524 1522 1512 1501 1503 1501 1492 1479 1470 1470 1467 1464 1458 1454 1451 1449 1446 1444 1443 1444 1445 1446 1447 1450 1452 1457 1462 1466 1470 1475 1478 1484 1487 1491 1495 1500 1505 1509 1513 1518 1521 1525 1529 1533 1535 1539 1541 1544
1524 1525 1520 1517 1503 1500 1495 1486 1472 1461 1465 1461 1460 1457 1453 1450 1447 1442 1438 1436 1435 1436 1438 1440 1442 1444 1446 1452 1458 1460 1465 1470 1473 1480 1485 1489 1494 1498 1503 1507 1513 1516 1519 1524 1529 1531 1534 1537 1539
1523 1525 1521 1510 1501 1500 1490 1482 1462 1458 1458 1456 1458 1456 1454 1450 1446 1441 1437 1433 1429 1429 1430 1432 1435 1437 1439 1441 1445 1446 1446 1459 1465 1471 1476 1482 1487 1491 1494 1499 1504 1509 1512 1516 1522 1524 1528 1532 1534
1520 1518 1515 1503 1498 1501 1488 1473 1458 1458 1456 1455 1454 1454 1451 1447 1442 1437 1434 1430 1427 1424 1423 1424 1426 1430 1432 1434 1437 1440 1433 1447 1456 1462 1468 1474 1480 1484 1482 1490 1496 1501 1506 1511 1514 1517 1520 1526 1528
1516 1516 1511 1513 1500 1492 1488 1472 1460 1453 1454 1454 1453 1449 1450 1446 1438 1433 1429 1426 1423 1420 1418 1418 1418 1419 1424 1427 1430 1434 1437 1441 1446 1452 1457 1462 1468 1474 1478 1482 1489 1493 1499 1504 1508 1510 1514 1517 1522
1516 1511 1512 1509 1509 1512 1494 1498 1463 1455 1454 1453 1453 1448 1444 1441 1437 1433 1427 1421 1418 1414 1412 1410 1410 1412 1414 1419 1422 1423 1426 1432 1438 1443 1447 1451 1456 1463 1464 1472 1481 1486 1490 1496 1503 1503 1507 1511 1514
1514 1510 1506 1504 1506 1505 1495 1498 1461 1452 1450 1451 1449 1445 1441 1438 1434 1428 1422 1417 1412 1408 1405 1403 1401 1402 1406 1410 1414 1415 1420 1425 1431 1435 1440 1446 1451 1455 1460 1465 1473 1480 1483 1490 1496 1497 1501 1506 1508
1515 1508 1503 1504 1504 1513 1493 1491 1459 1452 1448 1449 1447 1442 1437 1433 1427 1422 1416 1411 1405 1401 1397 1395 1394 1393 1397 1401 1405 1407 1414 1418 1422 1427 1433 1439 1444 1447 1453 1459 1467 1475 1478 1482 1486 1489 1494 1497 1502
1518 1520 1538 1530 1530 1510 1486 1485 1459 1450 1448 1446 1442 1437 1433 1428 1421 1415 1410 1404 1397 1392 1389 1386 1385 1384 1387 1392 1396 1400 1406 1409 1415 1420 1425 1431 1436 1439 1444 1450 1452 1464 1467 1475 1480 1484 1489 1492 1496
1526 1528 1551 1555 1532 1498 1477 1481 1451 1444 1444 1443 1440 1432 1427 1421 1415 1408 1402 1395 1389 1383 1380 1377 1377 1376 1378 1384 1387 1393 1399 1401 1408 1414 1419 1425 1429 1433 1438 1441 1450 1453 1461 1466 1471 1477 1483 1488 1491
1528 1539 1524 1520 1528 1510 1478 1462 1446 1443 1441 1436 1435 1432 1423 1415 1409 1400 1392 1386 1380 1375 1372 1369 1368 1368 1370 1375 1381 1386 1391 1395 1401 1408 1414 1418 1423 1426 1426 1434 1438 1446 1454 1457 1464 1470 1477 1482 1487
1526 1526 1536 1540 1533 1517 1480 1462 1445 1442 1441 1438 1434 1426 1417 1412 1403 1395 1386 1378 1373 1368 1364 1361 1360 1360 1364 1368 1375 1380 1385 1391 1396 1401 1406 1411 1416 1419 1425 1427 1432 1439 1447 1453 1457 1463 1472 1478 1487
1534 1538 1533 1526 1520 1517 1490 1455 1444 1445 1444 1436 1429 1421 1416 1407 1398 1388 1379 1371 1366 1361 1357 1355 1354 1354 1357 1363 1368 1370 1379 1385 1390 1395 1400 1405 1410 1415 1420 1425 1427 1429 1440 1447 1452 1463 1472 1476 1484
1525 1531 1532 1542 1523 1514 1507 1468 1442 1442 1440 1436 1428 1421 1413 1404 1394 1384 1374 1366 1360 1354 1350 1348 1347 1348 1351 1358 1362 1368 1375 1382 1388 1389 1395 1401 1406 1410 1416 1421 1431 1436 1439 1450 1454 1465 1469 1474 1483